Location: Sperry Observatory
(40.6664°N, 74.3236°W)
Time: 02:13:15
(UTC-04:00)

Amateur Radio Satellites - All Passes

Search period start: 31 October 2014 01:43
Search period end: 01 November 2014 01:43
Location: Sperry Observatory, 40.6664°N, 74.3236°W

Satellite Date Start Highest point End Downlink Frequencies (MHz)
Time Altitude Azimuth
JAS-1B 31 Oct 01:55:41 02:02:27 41° 99° (E) 02:10:22 435.800 - 435.900 CW/SSB
AO-27 31 Oct 02:01:12 02:04:07 15° 91° (E) 02:07:02 436.795 MHz FM
Oscar 16 31 Oct 02:11:48 02:16:46 48° 100° (E) 02:21:42 437.025 USB, Beacon 2401.1428
Sapphire 31 Oct 02:23:21 02:28:33 51° 113° (ESE) 02:33:47 437.095 MHz 1200 baud AX-25 AFSK
Uribyol 2 31 Oct 02:43:45 02:48:39 40° 98° (E) 02:53:29 436.500 FM
PCSat 31 Oct 02:44:50 02:50:15 84° 117° (ESE) 02:55:42 145.825 MHz
AO-Echo 31 Oct 02:51:24 02:56:42 63° 101° (E) 03:01:55 ?
ITAMSAT 1 31 Oct 02:51:29 02:56:30 45° 99° (E) 03:01:27 435.822 SSB
RS-15 31 Oct 03:02:07 03:09:51 21° 12° (NNE) 03:17:43 29.354 - 29.394 USB, Beacon 29.352 USB
Oscar 19 31 Oct 03:04:04 03:09:04 55° 288° (WNW) 03:14:03 437.125 CW, 437.150 USB
AO-27 31 Oct 03:38:53 03:44:05 65° 287° (WNW) 03:49:13 436.795 MHz FM
JAS-1B 31 Oct 03:46:27 03:52:58 42° 292° (WNW) 04:00:39 435.800 - 435.900 CW/SSB
Gurwin Techsat 1B 31 Oct 03:51:12 03:56:33 88° 104° (ESE) 04:01:52 435.225 FM
Oscar 16 31 Oct 03:52:01 03:55:45 21° 296° (WNW) 03:59:29 437.025 USB, Beacon 2401.1428
TMSAT-1 31 Oct 03:57:55 04:03:15 76° 103° (ESE) 04:08:32 436.925 FM
Sapphire 31 Oct 04:07:48 04:12:14 25° 312° (NW) 04:16:43 437.095 MHz 1200 baud AX-25 AFSK
OPAL 31 Oct 04:16:03 04:20:00 23° 63° (ENE) 04:23:55 ?
Uribyol 2 31 Oct 04:23:42 04:27:53 25° 295° (WNW) 04:32:02 436.500 FM
PCSat 31 Oct 04:30:51 04:34:22 17° 317° (NW) 04:37:53 145.825 MHz
AO-Echo 31 Oct 04:31:26 04:34:55 18° 298° (WNW) 04:38:22 ?
ITAMSAT 1 31 Oct 04:31:39 04:35:40 23° 296° (WNW) 04:39:41 435.822 SSB
Uosat F 31 Oct 04:42:54 04:47:12 28° 96° (E) 04:51:28 435.120 FM
JAS-2 31 Oct 04:57:25 05:02:34 19° 87° (E) 05:07:35 435.800 - 435.900 CW/SSB, 435.910 FM
AO-7 31 Oct 04:57:34 05:05:41 54° 102° (ESE) 05:13:47 29.400 - 29.500 MHz
Saudisat 1A 31 Oct 05:07:39 05:10:38 18° 111° (ESE) 05:13:37 436.775 MHz
PANSAT 31 Oct 05:14:49 05:16:22 12° 173° (S) 05:17:56 not established
RS-15 31 Oct 05:15:30 05:26:06 46° 44° (NE) 05:37:03 29.354 - 29.394 USB, Beacon 29.352 USB
Gurwin Techsat 1B 31 Oct 05:33:31 05:35:44 13° 301° (WNW) 05:37:57 435.225 FM
TMSAT-1 31 Oct 05:39:40 05:42:30 15° 300° (WNW) 05:45:19 436.925 FM
OPAL 31 Oct 05:53:43 05:58:36 44° 259° (WSW) 06:03:26 ?
STRAND 1 31 Oct 06:10:57 06:15:27 32° 67° (ENE) 06:19:58 ?
Hamsat 31 Oct 06:12:10 06:15:57 31° 97° (E) 06:19:45 145.90 MHz
Uosat F 31 Oct 06:21:28 06:25:59 34° 292° (WNW) 06:30:29 435.120 FM
JAS-2 31 Oct 06:40:30 06:48:26 87° 285° (WNW) 06:56:04 435.800 - 435.900 CW/SSB, 435.910 FM
Saudisat 1A 31 Oct 06:45:36 06:49:50 46° 307° (NW) 06:54:06 436.775 MHz
AO-7 31 Oct 06:50:49 06:58:09 36° 301° (WNW) 07:05:29 29.400 - 29.500 MHz
PANSAT 31 Oct 06:54:06 06:55:46 12° 186° (S) 06:57:25 not established
SO-67 31 Oct 07:19:41 07:22:17 20° 94° (E) 07:24:52 435.3500 MHz FM
RS-15 31 Oct 07:27:57 07:38:48 58° 247° (WSW) 07:50:08 29.354 - 29.394 USB, Beacon 29.352 USB
Hamsat 31 Oct 07:48:30 07:51:43 22° 292° (WNW) 07:54:56 145.90 MHz
STRAND 1 31 Oct 07:50:05 07:54:35 31° 264° (W) 07:59:07 ?
MaSat-1 31 Oct 08:14:58 08:17:21 43° 248° (WSW) 08:19:36 437.345 MHz
JAS-2 31 Oct 08:27:05 08:32:20 20° 303° (WNW) 08:37:33 435.800 - 435.900 CW/SSB, 435.910 FM
SO-67 31 Oct 08:52:29 08:55:10 21° 290° (WNW) 08:57:49 435.3500 MHz FM
ISS 31 Oct 09:07:12 09:07:41 10° 128° (SE) 09:08:10 145.800 FM
HO-68 31 Oct 09:35:20 09:42:17 49° 100° (E) 09:49:10 435.675 MHz FM
PCSat 31 Oct 09:51:57 09:54:00 12° 38° (NE) 09:56:03 145.825 MHz
UKube-1 31 Oct 09:53:29 09:56:52 22° 95° (E) 10:00:14 145.840 MHz, 145.915 MHz
ZACube-1 31 Oct 10:04:06 10:04:56 11° 90° (E) 10:05:45 437.345 MHz
Oscar 11 31 Oct 10:28:00 10:32:14 52° 100° (E) 10:36:26 145.825 FM, Beacon 2401.500 USB
SO-50 31 Oct 10:33:54 10:37:23 23° 111° (ESE) 10:40:57 436.795 FM
ISS 31 Oct 10:40:34 10:43:53 85° 323° (NW) 10:47:13 145.800 FM
KITSAT 1 31 Oct 10:42:36 10:50:21 53° 112° (ESE) 10:58:07 435.175 FM
FUNcube-1 31 Oct 10:44:31 10:48:16 31° 97° (E) 10:51:58 145.950 - 145.970 MHz USB
Sapphire 31 Oct 11:11:36 11:16:42 39° 54° (NE) 11:21:45 437.095 MHz 1200 baud AX-25 AFSK
HO-68 31 Oct 11:23:28 11:29:42 33° 298° (WNW) 11:35:56 435.675 MHz FM
UKube-1 31 Oct 11:29:11 11:33:06 33° 291° (WNW) 11:36:59 145.840 MHz, 145.915 MHz
PCSat 31 Oct 11:33:09 11:38:33 62° 58° (ENE) 11:43:54 145.825 MHz
ZACube-1 31 Oct 11:37:36 11:41:45 60° 286° (WNW) 11:45:49 437.345 MHz
Oscar 11 31 Oct 12:05:38 12:07:58 14° 296° (WNW) 12:10:18 145.825 FM, Beacon 2401.500 USB
SO-50 31 Oct 12:13:25 12:17:40 40° 309° (NW) 12:22:04 436.795 FM
ISS 31 Oct 12:18:31 12:20:59 19° 342° (NNW) 12:23:26 145.800 FM
FUNcube-1 31 Oct 12:21:20 12:24:27 21° 293° (WNW) 12:27:33 145.950 - 145.970 MHz USB
KITSAT 1 31 Oct 12:38:32 12:45:58 39° 313° (NW) 12:53:27 435.175 FM
Oscar 19 31 Oct 12:42:31 12:46:39 25° 66° (ENE) 12:50:48 437.125 CW, 437.150 USB
JAS-1B 31 Oct 12:43:28 12:48:06 26° 64° (ENE) 12:52:45 435.800 - 435.900 CW/SSB
Sapphire 31 Oct 12:55:18 12:59:58 30° 251° (WSW) 13:04:36 437.095 MHz 1200 baud AX-25 AFSK
UOSAT-12 31 Oct 12:57:19 13:01:52 59° 119° (ESE) 13:06:31 437.025 FM, 437.400 FM
PCSat 31 Oct 13:17:53 13:21:25 18° 255° (WSW) 13:24:55 145.825 MHz
AO-27 31 Oct 13:18:41 13:22:45 24° 64° (ENE) 13:26:51 436.795 MHz FM
Oscar 16 31 Oct 13:28:22 13:33:29 69° 74° (ENE) 13:38:36 437.025 USB, Beacon 2401.1428
Saudisat 1A 31 Oct 13:33:48 13:36:45 17° 42° (NE) 13:39:41 436.775 MHz
Gurwin Techsat 1B 31 Oct 13:34:29 13:37:55 18° 62° (ENE) 13:41:22 435.225 FM
TMSAT-1 31 Oct 13:41:28 13:44:25 15° 61° (ENE) 13:47:23 436.925 FM
ISS 31 Oct 13:57:07 13:58:41 13° 2° (N) 14:00:15 145.800 FM
Uribyol 2 31 Oct 14:01:10 14:06:18 60° 72° (ENE) 14:11:27 436.500 FM
AO-Echo 31 Oct 14:03:51 14:08:49 76° 75° (ENE) 14:13:59 ?
AO-7 31 Oct 14:08:22 14:12:51 16° 48° (NE) 14:17:20 29.400 - 29.500 MHz
ITAMSAT 1 31 Oct 14:09:04 14:14:14 67° 73° (ENE) 14:19:26 435.822 SSB
Oscar 19 31 Oct 14:20:59 14:25:46 39° 262° (W) 14:30:35 437.125 CW, 437.150 USB
JAS-1B 31 Oct 14:33:15 14:38:37 39° 262° (W) 14:43:57 435.800 - 435.900 CW/SSB
UOSAT-12 31 Oct 14:38:57 14:42:24 20° 317° (NW) 14:45:54 437.025 FM, 437.400 FM
KITSAT 1 31 Oct 14:40:30 14:44:06 13° 339° (NNW) 14:47:42 435.175 FM
AO-27 31 Oct 14:57:01 15:01:58 44° 261° (W) 15:06:58 436.795 MHz FM
Oscar 16 31 Oct 15:10:46 15:13:18 14° 270° (W) 15:15:51 437.025 USB, Beacon 2401.1428
Gurwin Techsat 1B 31 Oct 15:12:07 15:17:22 62° 259° (W) 15:22:39 435.225 FM
Saudisat 1A 31 Oct 15:12:21 15:16:44 65° 241° (WSW) 15:21:06 436.775 MHz
TMSAT-1 31 Oct 15:18:25 15:23:42 73° 258° (WSW) 15:29:02 436.925 FM
ISS 31 Oct 15:33:32 15:36:18 23° 22° (NNE) 15:39:03 145.800 FM
Uribyol 2 31 Oct 15:42:55 15:46:09 16° 269° (W) 15:49:24 436.500 FM
AO-Echo 31 Oct 15:46:17 15:48:11 12° 272° (W) 15:50:07 ?
ITAMSAT 1 31 Oct 15:51:21 15:54:11 15° 269° (W) 15:57:02 435.822 SSB
Uosat F 31 Oct 15:55:46 16:00:22 38° 69° (ENE) 16:05:00 435.120 FM
AO-7 31 Oct 15:55:58 16:04:08 69° 68° (ENE) 16:12:22 29.400 - 29.500 MHz
KITSAT 1 31 Oct 16:42:11 16:44:03 11° 12° (NNE) 16:45:54 435.175 FM
JAS-2 31 Oct 16:52:05 16:57:56 41° 66° (ENE) 17:04:30 435.800 - 435.900 CW/SSB, 435.910 FM
Hamsat 31 Oct 17:05:39 17:08:53 22° 68° (ENE) 17:12:08 145.90 MHz
ISS 31 Oct 17:09:55 17:13:12 59° 220° (SW) 17:16:29 145.800 FM
Uosat F 31 Oct 17:35:08 17:39:13 25° 265° (W) 17:43:20 435.120 FM
AO-7 31 Oct 17:51:00 17:57:30 25° 266° (W) 18:04:04 29.400 - 29.500 MHz
OPAL 31 Oct 18:03:41 18:08:28 47° 102° (ESE) 18:13:13 ?
STRAND 1 31 Oct 18:25:25 18:25:30 10° 88° (E) 18:25:36 ?
KITSAT 1 31 Oct 18:36:11 18:42:53 27° 40° (NE) 18:49:32 435.175 FM
JAS-2 31 Oct 18:37:22 18:43:01 35° 267° (W) 18:49:22 435.800 - 435.900 CW/SSB, 435.910 FM
Hamsat 31 Oct 18:41:01 18:44:41 29° 264° (W) 18:48:21 145.90 MHz
SO-50 31 Oct 19:04:56 19:08:51 24° 45° (NE) 19:12:48 436.795 FM
SO-67 31 Oct 19:23:40 19:27:05 71° 259° (W) 19:30:32 435.3500 MHz FM
RS-15 31 Oct 19:42:02 19:50:05 24° 102° (ESE) 19:58:01 29.354 - 29.394 USB, Beacon 29.352 USB
AO-40 31 Oct 19:43:11 22:21:22 23° 117° (ESE) 23:36:19 Beacon 2401.320
OPAL 31 Oct 19:43:24 19:47:01 21° 298° (WNW) 19:50:37 ?
STRAND 1 31 Oct 20:00:10 20:05:21 88° 284° (WNW) 20:10:29 ?
HO-68 31 Oct 20:03:47 20:10:09 36° 63° (ENE) 20:16:33 435.675 MHz FM
KITSAT 1 31 Oct 20:31:05 20:39:11 81° 242° (WSW) 20:47:14 435.175 FM
SO-50 31 Oct 20:44:58 20:49:40 50° 243° (WSW) 20:54:22 436.795 FM
UKube-1 31 Oct 20:49:02 20:52:09 19° 65° (ENE) 20:55:16 145.840 MHz, 145.915 MHz
ZACube-1 31 Oct 21:01:03 21:01:52 10° 62° (ENE) 21:02:41 437.345 MHz
Oscar 11 31 Oct 21:22:42 21:26:43 39° 72° (ENE) 21:30:44 145.825 FM, Beacon 2401.500 USB
UOSAT-12 31 Oct 21:27:18 21:31:52 47° 52° (NE) 21:36:21 437.025 FM, 437.400 FM
FUNcube-1 31 Oct 21:40:29 21:44:17 27° 69° (ENE) 21:48:02 145.950 - 145.970 MHz USB
STRAND 1 31 Oct 21:42:03 21:43:44 12° 302° (WNW) 21:45:25 ?
MaSat-1 31 Oct 21:48:54 21:52:32 36° 111° (ESE) 21:55:51 437.345 MHz
RS-15 31 Oct 21:49:59 22:01:01 84° 302° (WNW) 22:12:02 29.354 - 29.394 USB, Beacon 29.352 USB
HO-68 31 Oct 21:50:55 21:57:41 44° 261° (W) 22:04:31 435.675 MHz FM
UKube-1 31 Oct 22:23:59 22:28:03 38° 261° (W) 22:32:09 145.840 MHz, 145.915 MHz
KITSAT 1 31 Oct 22:29:10 22:33:18 15° 260° (W) 22:37:27 435.175 FM
ZACube-1 31 Oct 22:33:04 22:37:37 81° 258° (WSW) 22:42:06 437.345 MHz
Oscar 11 31 Oct 23:00:07 23:03:02 18° 267° (W) 23:05:58 145.825 FM, Beacon 2401.500 USB
UOSAT-12 31 Oct 23:08:15 23:11:40 20° 250° (WSW) 23:15:02 437.025 FM, 437.400 FM
FUNcube-1 31 Oct 23:16:41 23:20:34 28° 264° (W) 23:24:24 145.950 - 145.970 MHz USB
MaSat-1 31 Oct 23:25:33 23:27:59 16° 304° (NW) 23:30:15 437.345 MHz
RS-15 01 Nov 00:06:03 00:15:12 29° 329° (NNW) 00:24:28 29.354 - 29.394 USB, Beacon 29.352 USB
